Location: Kudlacze
(49.7800°N, 20.0200°E)
Time: 11:26:34
(UTC+00:00)

Envisat - Pass Details

Date: 26 September 2021
Orbit: 764 x 766 km, 98.2° (Epoch: 20 October)

Event Time Altitude Azimuth Distance (km) Brightness Sun altitude
Rises 03:18:17 0° 20° (NNE) 3,244 6.7 -12.7°
Reaches altitude 10° 03:20:45 10° 28° (NNE) 2,313 6.1 -12.3°
Maximum altitude 03:25:30 39° 97° (E) 1,146 4.6 -11.5°
Drops below altitude 10° 03:30:13 10° 165° (SSE) 2,296 5.5 -10.8°
Sets 03:32:40 0° 173° (S) 3,217 6.2 -10.4°
